Weather Roundup
Issued by NWS

Home | Current Version | Previous Version | Text Only | Print | Product List | Glossary On
Versions: 1 2 3 4 5 6 7 8 9 10 11 12 13 14 15 16 17 18 19 20 21 22 23 24 25 26 27 28 29 30 31 32 33 34 35 36 37 38 39 40 41 42 43 44 45 46 47 48 49 50
000
NZUS93 KARX 252310
HRRWXR

CURRENT HOURLY OBSERVATIONS ACROSS
MUCH OF THE UPPER MISSISSIPPI VALLEY
NATIONAL WEATHER SERVICE LA CROSSE WI
600 PM CDT SUN JUN 25 2017


...SOUTHEAST MINNESOTA...


CITY           SKY/WX    TMP DP  RH WIND       PRES   REMARKS
ROCHESTER      MOSUNNY   66  43  43 NW17G24   30.14F
ROCHESTER/MAYO FAIR      65  38  37 W23G30    30.12F
WINONA         MOSUNNY   68  45  42 NW16G24   30.11S
AUSTIN         MOSUNNY   64  39  39 NW17G24   30.15S
ALBERT LEA     MOSUNNY   66  36  32 NW10G18   30.16S
DODGE CENTER   PTSUNNY   66  41  39 NW16G23   30.14F
PRESTON        MOSUNNY   63  43  47 NW17G23   30.14S
OWATONNA       PTSUNNY   66  43  42 NW15G23   30.15S
FARIBAULT      MOSUNNY   66  39  37 W10G23    30.15S
$$

...ELSEWHERE IN MINNESOTA...


CITY           SKY/WX    TMP DP  RH WIND       PRES   REMARKS
MINNEAPOLIS    MOSUNNY   66  39  37 NW20G28   30.12F
INTNL FALLS    CLOUDY    56  44  64 NE6       30.12S
DULUTH         LGT RAIN  54  48  80 NW16G22   30.09R
RED WING       MOSUNNY   66  37  34 NW9       30.10F
REDWOOD FALLS  CLOUDY    66  41  40 W16       30.18F
MANKATO        MOSUNNY   67  38  34 NW18      30.16F
WORTHINGTON    CLOUDY    66  42  41 NW12      30.22S
FAIRMONT       MOSUNNY   68  42  38 NW13G25   30.19F
$$

...SOUTHWEST WISCONSIN...


CITY           SKY/WX    TMP DP  RH WIND       PRES   REMARKS
LA CROSSE      SUNNY     72  46  39 W20G26    30.09F
PRAIRIE DU CHI MOSUNNY   67  46  48 W12G20    30.12S
BOSCOBEL       MOSUNNY   66  50  56 W13       30.12F
LONE ROCK      CLOUDY    65  51  60 W16G23    30.10F
PLATTEVILLE    MOSUNNY   66  50  57 W16G26    30.13F
FORT MC COY    CLOUDY    63  55  75 N5        30.10S
CAMP DOUGLAS   CLOUDY    59  55  85 NW9       30.09S
MAUSTON-NEW LI CLOUDY    59  55  87 NW9       30.09F
VIROQUA        FAIR      64  52  64 W10G20    30.11S
WIS DELLS      RAIN      56  49  78 NW14G21   30.11R
$$

...ELSEWHERE IN WISCONSIN...


CITY           SKY/WX    TMP DP  RH WIND       PRES   REMARKS
MILWAUKEE      MOSUNNY   69  47  45 W15       30.04S
MADISON        PTSUNNY   64  50  60 W9        30.08S
GREEN BAY      LGT RAIN  65  54  67 W12       30.01R
EAU CLAIRE     PTSUNNY   63  43  48 NW17G30   30.08S
BLACK RVR FLS  FAIR      65  51  59 W6G17     30.08F
MEDFORD        PTSUNNY   55  50  81 N16       30.07R
WAUSAU         CLOUDY    58  50  75 NW13      30.03S
WIS RAPIDS     LGT RAIN  59  56  89 NW9       30.08F
MARSHFIELD     PTSUNNY   59  53  80 NW10      30.07S
RICE LAKE      MOSUNNY   60  48  65 W9        30.10F
$$

...NORTHEAST IOWA...


CITY           SKY/WX    TMP DP  RH WIND       PRES   REMARKS
WATERLOO       SUNNY     70  41  34 NW15G23   30.15S
DUBUQUE        MOSUNNY   65  49  56 NW15      30.15F
DECORAH        SUNNY     64  46  52 NW8G20    30.13S
MASON CITY     MOSUNNY   68  38  33 NW18G26   30.18F
CHARLES CITY   MOSUNNY   66  41  39 NW15      30.16S
OELWEIN        PTSUNNY   68  45  42 NW15G22   30.16S
$$

...ELSEWHERE IN IOWA...


CITY           SKY/WX    TMP DP  RH WIND       PRES   REMARKS
DES MOINES     MOSUNNY   74  42  31 NW15G22   30.20S
IOWA CITY      PTSUNNY   73  46  38 W15G21    30.17F
FORT DODGE     SUNNY     72  43  35 NW12G17   30.20F
MARSHALLTOWN   MOSUNNY   71  43  36 NW16      30.17F
CEDAR RAPIDS   MOSUNNY   69  48  47 NW15G23   30.15F
$$

...NORTHERN ILLINOIS...


CITY           SKY/WX    TMP DP  RH WIND       PRES   REMARKS
CHICAGO-OHARE  PTSUNNY   70  47  43 W17G28    30.06S
CHICAGO-MIDWAY PTSUNNY   71  47  42 W20       30.07F
MOLINE         MOSUNNY   70  48  45 NW12      30.15S
ROCKFORD       PTSUNNY   65  49  56 W10G22    30.12R
PEORIA         MOSUNNY   72  48  42 NW9       30.15S
$$

NOTE: "FAIR" INDICATES FEW OR NO CLOUDS BELOW 12,000 FEET WITH NO
SIGNIFICANT WEATHER AND/OR OBSTRUCTIONS TO VISIBILITY. WIND
SPEEDS ARE IN MILES-PER-HOUR.




USA.gov is the U.S. government's official web portal to all federal, state and local government web resources and services.